This is the latest recevied weather packets stored in our database for station/object ED1ZAI-14. If no packets are shown the sender has not sent any weather packets the latest 10 day(s).
| Time | Temp. | Humidity | Pressure | Rain* | Wind** | Luminosity | Snow |
|---|---|---|---|---|---|---|---|
| 1777745146 | 4.44° C | 100% | 1037.4 hPa | - | - | - | - |
| 1777743284 | 5° C | 100% | 1037.8 hPa | - | - | - | - |
| 1777741484 | 5° C | 100% | 1037.8 hPa | - | - | - | - |
| 1777739684 | 5° C | 100% | 1038 hPa | - | - | - | - |
| 1777737884 | 5° C | 100% | 1038.1 hPa | - | - | - | - |
| 1777736084 | 5° C | 100% | 1038.6 hPa | - | - | - | - |
| 1777734293 | 3.89° C | 100% | 1038.5 hPa | - | - | - | - |
| 1777732484 | 6.67° C | 100% | 1038.5 hPa | - | - | - | - |
| 1777730684 | 6.11° C | 100% | 1038.8 hPa | - | - | - | - |
| 1777728884 | 6.11° C | 100% | 1039.1 hPa | - | - | - | - |
| 1777727083 | 6.11° C | 100% | 1039.3 hPa | - | - | - | - |
| 1777725283 | 5° C | 100% | 1039.8 hPa | - | - | - | - |
| 1777723484 | 5.56° C | 100% | 1039.8 hPa | - | - | - | - |
| 1777721685 | 5.56° C | 100% | 1040.1 hPa | - | - | - | - |
| 1777719946 | 4.44° C | 100% | 1041 hPa | - | - | - | - |
| 1777718146 | 4.44° C | 100% | 1040.8 hPa | - | - | - | - |
| 1777716346 | 5° C | 100% | 1041.4 hPa | - | - | - | - |
| 1777714546 | 5° C | 100% | 1041.2 hPa | - | - | - | - |
| 1777712746 | 6.11° C | 100% | 1041.2 hPa | - | - | - | - |
| 1777710946 | 6.11° C | 100% | 1041.2 hPa | - | - | - | - |
| 1777709146 | 6.11° C | 100% | 1041 hPa | - | - | - | - |
| 1777707345 | 6.11° C | 100% | 1041.2 hPa | - | - | - | - |
| 1777705545 | 6.11° C | 100% | 1041.3 hPa | - | - | - | - |
| 1777703745 | 6.11° C | 100% | 1041.3 hPa | - | - | - | - |
| 1777701945 | 6.11° C | 100% | 1041.3 hPa | - | - | - | - |
* Rain since midnight (hover to see other rain measurements)
** Current wind speed in m/s (hover to see current wind gust speed)